Regional Weather Roundup
Issued by NWS

Home | Current Version | Previous Version | Text Only | Print | Product List | Glossary On
Versions: 1 2 3 4 5 6 7 8 9 10 11 12 13 14 15 16 17 18 19 20 21 22 23 24 25 26 27 28 29 30 31 32 33 34 35 36 37 38 39 40 41 42 43 44 45 46 47 48 49 50
848
ASUS44 KFWD 102115
RWRTX
NORTH TEXAS HOURLY WEATHER ROUNDUP
NATIONAL WEATHER SERVICE FORT WORTH TX
300 PM CST SAT DEC 10 2016

NOTE: "FAIR" INDICATES FEW OR NO CLOUDS BELOW 12,000 FEET WITH NO
SIGNIFICANT WEATHER AND/OR OBSTRUCTIONS TO VISIBILITY.

TXZ118-119-102200-
DALLAS/FORT WORTH METROPLEX

CITY           SKY/WX    TMP DP  RH WIND       PRES   REMARKS
DFW AIRPORT    CLOUDY    49  30  48 S17       30.25F
DALLAS LOVE    CLOUDY    49  29  46 S20       30.28F
FTW MEACHAM    CLOUDY    49  33  54 S17       30.25F
DAL-EXECUTIVE  CLOUDY    48  30  49 S14G21    30.27F
FTW-ALLIANCE   CLOUDY    48  33  56 S20G25    30.24F
FTW-NAS-JRB    CLOUDY    49  34  56 S20G28    30.27F
FTW-SPINKS     CLOUDY    48  32  53 SE10G18   30.28F
ARLINGTON      LGT RAIN  48  31  51 S18       30.28F
GRAND PRAIRIE  PTSUNNY   48  32  53 SE12G18   30.30F
ADDISON        CLOUDY    46  28  49 S15G23    30.27F
MESQUITE       CLOUDY    46  28  49 SE13      30.31F
LANCASTER      CLOUDY    48  28  45 SE13      30.30F
$$

TXZ091>094-102>105-117-120-121-131>134-102200-
NORTH CENTRAL TEXAS

CITY           SKY/WX    TMP DP  RH WIND       PRES   REMARKS
SHRMAN/DENISON CLOUDY    47  30  52 SE17G23   30.26F WCI  40
GAINESVILLE    CLOUDY    45  30  56 S14G21    30.26S WCI  38
BOWIE          MOSUNNY   50  35  56 SE15G30   30.19F
BRIDGEPORT     CLOUDY    47  37  65 S13G21    30.24F
DECATUR        CLOUDY    46  33  61 S18G25    30.22F WCI  38
DENTON         CLOUDY    48  33  56 S20G26    30.25F
MCKINNEY       CLOUDY    47  29  49 S14       30.27F
BONHAM         CLOUDY    45  25  45 SE15G23   30.27F WCI  38
GREENVILLE       N/A     46  27  46 SE14      30.30F
ROCKWALL       CLOUDY    47  28  47 S12G17    30.30F
TERRELL        CLOUDY    47  26  44 S14       30.31F
WAXAHACHIE     CLOUDY    47  32  55 S10G16    30.30F
CLEBURNE       CLOUDY    46  32  57 S14G20    30.28F
GRANBURY       CLOUDY    49  36  61 SE14      30.27F
$$

TXZ083>090-098>101-113>116-127>130-139>142-154-155-102200-
WESTERN NORTH TEXAS

CITY           SKY/WX    TMP DP  RH WIND       PRES   REMARKS
WICHITA FALLS  SUNNY     52  31  44 S22       30.13F
WF-KICKAPOO    SUNNY     53  32  45 S20G25    30.15F
VERNON         SUNNY     56  32  39 S18       30.10F
ABILENE        SUNNY     59  43  55 S23G33    30.13F
ABILENE-DYESS  SUNNY     58  41  53 S21       30.11F
CISCO          MOSUNNY   54  37  54 S18G30    30.18F
BRECKENRIDGE   SUNNY     57  37  46 S21       30.16F
GRAHAM         SUNNY     56  38  52 S15G22    30.15F
MINERAL WELLS  CLOUDY    48  36  63 S17G28    30.22F
STEPHENVILLE   CLOUDY    47  38  68 S10G17    30.25F
COMANCHE       CLOUDY    50  38  63 S14G23    30.23F
BROWNWOOD      CLOUDY    52  36  54 S14       30.22F
COLEMAN        CLOUDY    55  42  62 S18G26    30.18F
$$

TXZ143>147-156>162-174-175-102200-
CENTRAL TEXAS

CITY           SKY/WX    TMP DP  RH WIND       PRES   REMARKS
WACO           CLOUDY    49  33  54 S16       30.30F
WACO-MCGREGOR  CLOUDY    48  36  63 S14       30.30F
HILLSBORO      CLOUDY    48  34  58 S13       30.28F
CORSICANA      CLOUDY    49  27  42 SE13      30.33F
MEXIA          CLOUDY    48  29  48 SE13G21   30.31F
HEARNE         CLOUDY    51  36  55 SE7       30.33F
CAMERON        CLOUDY    52  37  56 SE7       30.31F
TEMPLE         CLOUDY    50  36  58 SE10      30.30F
KILLEEN        CLOUDY    49  37  64 SE12      30.27F
KILLEEN-SKYLRK CLOUDY    49  38  65 S12       30.29F
FORT HOOD      CLOUDY    49  37  63 S12       30.25F
GATESVILLE     CLOUDY    50  36  57 S9        30.29F
HAMILTON       CLOUDY    49  37  64 S15       30.27S
LAMPASAS       CLOUDY    50  41  69 S8        30.25F
$$

TXZ095>097-106>112-122>126-135>138-148>153-164>167-102200-
EAST TEXAS

CITY           SKY/WX    TMP DP  RH WIND       PRES   REMARKS
PARIS          CLOUDY    46  21  36 SE14      30.31F
SULPHUR SPRNGS CLOUDY    46  23  39 S10G16    30.33F
MOUNT PLEASANT MOSUNNY   46  26  44 SE8       30.36F
GILMER         CLOUDY    45  28  50 SE7       30.35F
MINEOLA        CLOUDY    48  27  43 SE6       30.32F
TYLER          CLOUDY    48  26  42 SE10      30.33F
LONGVIEW       CLOUDY    48  29  47 S9        30.35F
MARSHALL       CLOUDY    50  27  40 CALM      30.38F
ATHENS         CLOUDY    46  27  46 S8        30.32F
PALESTINE      CLOUDY    49  31  49 SE6       30.35F
JACKSONVILLE   CLOUDY    47  28  48 SE7       30.36F
HENDERSON      CLOUDY    49  28  44 SE6       30.37F
CENTER         CLOUDY    54  19  26 SE5       30.38F
NACOGDOCHES    CLOUDY    52  25  35 S6        30.36F
LUFKIN         CLOUDY    50  27  40 SE5       30.37F
$$

SUPPLEMENTAL OBSERVATIONS (CENTRAL)

CITY           SKY/WX    TMP DP  RH WIND       PRES   REMARKS
DENISON DAM      N/A     46  28  49 SE10        N/A
CADDO GRASSLND   N/A     46  25  42 S8G17       N/A
PAT MAYSE LAKE   N/A     45  21  39 E13         N/A  WCI  38
GREENVILLE       N/A     46  25  42 S10         N/A
CEDAR HILL       N/A     48  32  53 S10G20      N/A
ATHENS           N/A     48  27  43 S9          N/A
LAKE LIMESTONE   N/A     48  32  53 SE7         N/A
MCGREGOR         N/A     48  32  53 S12         N/A
TEMPLE           N/A     50  36  57 SE12        N/A
$$

SUPPLEMENTAL OBSERVATIONS (WEST)

CITY           SKY/WX    TMP DP  RH WIND       PRES   REMARKS
MILLERS CREEK    N/A     55  39  54 SW16G23     N/A
POSSUM KINGDOM   N/A     54  36  50 S16G25      N/A
LBJ GRASSLAND    N/A     46  34  61 CALM        N/A
GRANBURY         N/A     48  36  61 S15G22      N/A
COMANCHE         N/A     50  37  62 S15G22      N/A
HAMBY            N/A     61  45  55 SW24G31     N/A
IVIE RESERVOIR   N/A     57  43  58 S18G26      N/A
COLORADO BEND    N/A     46  37  71 S9          N/A
$$

SUPPLEMENTAL OBSERVATIONS (EAST)

CITY           SKY/WX    TMP DP  RH WIND       PRES   REMARKS
CLARKSVILLE      N/A     46  21  36 SE8         N/A
TEXARKANA        N/A     46  25  42 SE3         N/A
LINDEN           N/A     46  25  42 SE3         N/A
GILMER           N/A     46  28  49 SE8         N/A
HENDERSON        N/A     48  27  43 S6          N/A
LUFKIN           N/A     52  28  40 MISG        N/A
N SABINE NF      N/A     54  32  43 MISG        N/A
S SABINE NF      N/A     54  28  37 SE2         N/A
$$

SUPPLEMENTAL OBSERVATIONS ARE A COLLECTION OF AUTOMATED INSTRUMENTS
THAT ARE MAINTAINED BY A VARIETY OF FEDERAL AND STATE AGENCIES.
CERTAIN ELEMENTS...SUCH AS HUMIDITY VALUES AND SUSTAINED WIND
SPEEDS...MAY BE APPROXIMATED.





USA.gov is the U.S. government's official web portal to all federal, state and local government web resources and services.